TimeCST,TemperatureF,Dew PointF,Humidity,Sea Level PressureIn,VisibilityMPH,Wind Direction,Wind SpeedMPH,Gust SpeedMPH,PrecipitationIn,Events,Conditions,WindDirDegrees,DateUTC
12:54 AM,24.1,17.1,75,30.32,10.0,West,4.6,-,N/A,,Clear,270,2012-11-28 06:54:00
1:54 AM,25.0,18.0,75,30.33,10.0,WNW,3.5,-,N/A,,Clear,290,2012-11-28 07:54:00
2:54 AM,24.1,17.1,75,30.36,10.0,WNW,3.5,-,N/A,,Clear,290,2012-11-28 08:54:00
3:54 AM,24.1,19.0,81,30.37,10.0,NNW,5.8,-,N/A,,Clear,330,2012-11-28 09:54:00
4:54 AM,23.0,18.0,81,30.38,9.0,NNW,5.8,-,N/A,,Clear,330,2012-11-28 10:54:00
5:54 AM,21.0,17.1,85,30.40,9.0,NW,3.5,-,N/A,,Clear,310,2012-11-28 11:54:00
6:54 AM,21.9,17.1,82,30.41,8.0,Calm,Calm,-,N/A,,Partly Cloudy,0,2012-11-28 12:54:00
7:54 AM,23.0,18.0,81,30.42,7.0,Calm,Calm,-,N/A,,Partly Cloudy,0,2012-11-28 13:54:00
8:54 AM,26.1,21.0,81,30.44,7.0,Calm,Calm,-,N/A,,Partly Cloudy,0,2012-11-28 14:54:00
9:54 AM,33.1,23.0,66,30.44,9.0,NE,3.5,-,N/A,,Partly Cloudy,40,2012-11-28 15:54:00
10:54 AM,37.0,24.1,59,30.43,10.0,SE,4.6,-,N/A,,Partly Cloudy,140,2012-11-28 16:54:00
11:54 AM,39.9,25.0,55,30.39,10.0,SSE,5.8,-,N/A,,Mostly Cloudy,160,2012-11-28 17:54:00
12:54 PM,44.1,25.0,47,30.36,10.0,SE,5.8,-,N/A,,Scattered Clouds,140,2012-11-28 18:54:00
1:54 PM,46.0,24.1,42,30.33,10.0,SSE,8.1,-,N/A,,Scattered Clouds,160,2012-11-28 19:54:00
2:54 PM,46.9,24.1,41,30.30,10.0,SSW,8.1,-,N/A,,Mostly Cloudy,200,2012-11-28 20:54:00
3:54 PM,46.0,23.0,40,30.27,10.0,South,8.1,-,N/A,,Mostly Cloudy,180,2012-11-28 21:54:00
4:54 PM,39.9,21.9,49,30.26,10.0,South,6.9,-,N/A,,Scattered Clouds,170,2012-11-28 22:54:00
5:54 PM,39.0,21.9,50,30.25,10.0,SSE,5.8,-,N/A,,Partly Cloudy,150,2012-11-28 23:54:00
6:54 PM,36.0,21.9,57,30.25,10.0,SSE,6.9,-,N/A,,Overcast,160,2012-11-29 00:54:00
7:54 PM,35.1,21.9,59,30.24,10.0,SSE,8.1,-,N/A,,Mostly Cloudy,160,2012-11-29 01:54:00
8:54 PM,35.1,23.0,61,30.21,10.0,SSE,9.2,-,N/A,,Mostly Cloudy,160,2012-11-29 02:54:00
9:54 PM,34.0,24.1,67,30.19,10.0,South,8.1,-,N/A,,Mostly Cloudy,170,2012-11-29 03:54:00
10:54 PM,35.1,26.1,70,30.18,10.0,South,9.2,-,N/A,,Overcast,170,2012-11-29 04:54:00
11:54 PM,35.1,26.1,70,30.18,10.0,South,5.8,-,N/A,,Overcast,170,2012-11-29 05:54:00